This demonstration page uses our WeatherBlox Daily Observations layout. Learn more.

Left ArrowRight Arrow

44.31136, -96.79839

Hourly Observations for August 13, 2022

Temp ( °F °C ) Dew Point ( °F °C ) Humidity (%) Winds ( mph kmh ) Pressure ( in mb ) Visibility ( mi km ) Precip ( " mm )
12:44 am 00:44 Mostly Cloudy 70 21 70 21 100 100 NW 7 11 29.89 1012 10 16 0.00 0.00
12:56 am 00:56 Mostly Cloudy 69 20.6 69 20.6 100 100 WNW 6 9 29.96 1015 10 16 0.00 0.00
1:56 am 01:56 Cloudy 70 21.1 70 21.1 100 100 NNW 8 13 29.96 1014 10 16 0.00 0.00
2:56 am 02:56 Cloudy 71 21.7 71 21.7 100 100 NNW 8 13 29.97 1015 10 16 0.00 0.00
3:04 am 03:04 Cloudy 72 22 72 22 100 100 NNW 8 13 29.92 1013 10 16 0.00 0.00
3:44 am 03:44 Cloudy 72 22 72 22 100 100 N 7 11 29.92 1013 9 14 0.00 0.00
3:56 am 03:56 Cloudy 71 21.7 70 21.1 96 96 N 10 17 29.98 1015 10 16 0.00 0.00
4:33 am 04:33 Cloudy 70 21 70 21 100 100 N 10 17 29.94 1014 10 16 0.00 0.00
4:56 am 04:56 Cloudy 69 20.6 67 19.4 93 93 N 9 15 29.99 1016 10 16 0.00 0.00
5:03 am 05:03 Cloudy 70 21 68 20 94 94 N 8 13 29.94 1014 10 16 0.00 0.00
5:56 am 05:56 Cloudy 68 20 66 18.9 93 93 N 13 20 30.00 1016 10 16 0.00 0.00
6:56 am 06:56 Cloudy 68 20 66 18.9 93 93 N 8 13 30.02 1017 10 16 0.00 0.00
7:34 am 07:34 Cloudy 68 20 66 19 94 94 N 8 13 29.98 1015 10 16 0.00 0.00
7:56 am 07:56 Cloudy 68 20 66 18.9 93 93 N 8 13 30.04 1017 10 16 0.00 0.00
8:56 am 08:56 Cloudy 69 20.6 65 18.3 87 87 N 13 20 30.06 1018 10 16 0.00 0.00
9:40 am 09:40 Cloudy 68 20 64 18 88 88 N 9 15 30.01 1016 10 16 0.00 0.00
9:56 am 09:56 Cloudy 67 19.4 65 18.3 93 93 N 10 17 30.07 1018 10 16 0.00 0.00
10:44 am 10:44 Cloudy 70 21 64 18 83 83 N 12 19 30.01 1016 10 16 0.00 0.00
10:56 am 10:56 Cloudy 69 20.6 64 17.8 84 84 N 12 19 30.09 1019 10 16 0.00 0.00
11:09 am 11:09 Cloudy 70 21 64 18 83 83 N 9 15 30.02 1017 10 16 0.00 0.00
11:56 am 11:56 Cloudy 69 20.6 64 17.8 84 84 N 12 19 30.09 1019 10 16 0.00 0.00
12:08 pm 12:08 Cloudy 72 22 63 17 73 73 N 13 20 30.01 1016 10 16 0.00 0.00
12:56 pm 12:56 Cloudy 74 23.3 63 17.2 69 69 N 10 17 30.08 1019 10 16 0.00 0.00
1:56 pm 13:56 Cloudy 76 24.4 63 17.2 64 64 NNE 12 19 30.08 1019 10 16 0.00 0.00
2:56 pm 14:56 Cloudy 77 25 64 17.8 64 64 N 7 11 30.08 1019 10 16 0.00 0.00
3:56 pm 15:56 Mostly Cloudy 76 24.4 64 17.8 67 67 NNE 9 15 30.07 1018 10 16 0.00 0.00
4:56 pm 16:56 Mostly Cloudy 81 27.2 64 17.8 57 57 NE 8 13 30.07 1018 10 16 0.00 0.00
5:56 pm 17:56 Mostly Cloudy 78 25.6 63 17.2 60 60 NE 7 11 30.07 1018 10 16 0.00 0.00
6:56 pm 18:56 Mostly Sunny 78 25.6 64 17.8 62 62 ENE 6 9 30.06 1018 10 16 0.00 0.00
7:56 pm 19:56 Sunny 75 23.9 64 17.8 69 69 NE 6 9 30.06 1018 10 16 0.00 0.00
8:56 pm 20:56 Clear 70 21.1 63 17.2 78 78 ENE 3 6 30.06 1018 10 16 0.00 0.00
9:56 pm 21:56 Clear 68 20 63 17.2 84 84 E 7 11 30.08 1019 10 16 0.00 0.00
10:56 pm 22:56 Clear 65 18.3 63 17.2 93 93 E 7 11 30.09 1019 10 16 0.00 0.00
11:56 pm 23:56 Clear 63 17.2 63 17.2 100 100 ESE 6 9 30.09 1019 10 16 0.00 0.00

Powered by AerisWeather